WJA1851 PHOG-CYVR

Flight info

Callsign WJA1851
Flight time N/A
Altitude 35000
Route DCT APACK R463 AUNTI/N0450F370 A332 HALLI DCT 34N145W DCT ZAGER DCT 42N135W/N0443F390 DCT SHARI DCT PEKAA SHARK4
Aircraft B38M/M-SDE1FGHILORVWXY/HB1

Departure

Time 2026-04-14 14:45
Airport Kahului International Airport (PHOG)

Arrival

Time N/A
Airport Vancouver International Airport (CYVR)
Time Latitude Longitude Altitude Speed Heading
2026-04-14 14:20 20.89361 -156.43612 47 ft 0 kts 304°
2026-04-14 14:35 20.89357 -156.43606 47 ft 2 kts 304°
2026-04-14 14:35 20.89346 -156.43589 47 ft 3 kts 304°
2026-04-14 14:35 20.89334 -156.43571 47 ft 3 kts 305°
2026-04-14 14:35 20.89323 -156.43554 44 ft 3 kts 300°
2026-04-14 14:36 20.89316 -156.43535 43 ft 3 kts 280°
2026-04-14 14:36 20.89315 -156.43515 41 ft 3 kts 257°
2026-04-14 14:36 20.89322 -156.43495 45 ft 3 kts 234°
2026-04-14 14:36 20.89335 -156.43480 47 ft 3 kts 218°
2026-04-14 14:37 20.89342 -156.43475 46 ft 0 kts 215°
2026-04-14 14:40 20.89340 -156.43476 47 ft 1 kts 215°
2026-04-14 14:40 20.89327 -156.43486 47 ft 4 kts 215°
2026-04-14 14:40 20.89296 -156.43509 47 ft 7 kts 215°
2026-04-14 14:41 20.89244 -156.43548 46 ft 11 kts 215°
2026-04-14 14:41 20.89172 -156.43603 47 ft 15 kts 215°
2026-04-14 14:41 20.89079 -156.43671 47 ft 17 kts 213°
2026-04-14 14:41 20.89005 -156.43708 47 ft 3 kts 174°
2026-04-14 14:42 20.88997 -156.43705 47 ft 0 kts 160°
2026-04-14 14:43 20.88989 -156.43700 45 ft 2 kts 146°
2026-04-14 14:43 20.88975 -156.43685 47 ft 4 kts 130°
2026-04-14 14:43 20.88954 -156.43657 47 ft 6 kts 127°
2026-04-14 14:43 20.88953 -156.43613 47 ft 7 kts 58°
2026-04-14 14:44 20.88980 -156.43587 47 ft 0 kts 37°
2026-04-14 14:44 20.88983 -156.43584 47 ft 4 kts 37°
2026-04-14 14:44 20.89213 -156.43412 48 ft 80 kts 34°
2026-04-14 14:44 20.89870 -156.42923 45 ft 148 kts 35°
2026-04-14 14:45 20.90851 -156.42197 263 ft 182 kts 32°
2026-04-14 14:45 20.91980 -156.41754 1244 ft 170 kts 356°
2026-04-14 14:45 20.93151 -156.42128 1870 ft 184 kts 340°
2026-04-14 14:45 20.94473 -156.42369 2374 ft 203 kts 360°
2026-04-14 14:46 20.95972 -156.42381 2848 ft 229 kts
2026-04-14 14:46 20.97639 -156.42364 3486 ft 244 kts
2026-04-14 14:46 20.99331 -156.42331 4495 ft 250 kts
2026-04-14 14:46 21.01135 -156.42285 5174 ft 267 kts
2026-04-14 14:47 21.03010 -156.42232 6104 ft 271 kts
2026-04-14 14:47 21.04917 -156.42174 6939 ft 279 kts
2026-04-14 14:47 21.06895 -156.42112 7716 ft 287 kts
2026-04-14 14:47 21.08909 -156.42047 8530 ft 294 kts
2026-04-14 14:48 21.10971 -156.41979 9410 ft 299 kts
2026-04-14 14:48 21.13051 -156.41910 10168 ft 307 kts
2026-04-14 14:48 21.15247 -156.41837 10637 ft 325 kts
2026-04-14 14:48 21.17562 -156.41759 11111 ft 339 kts
2026-04-14 14:49 21.19954 -156.41679 11792 ft 345 kts
2026-04-14 14:49 21.22359 -156.41598 12602 ft 348 kts
2026-04-14 14:49 21.24786 -156.41516 13344 ft 351 kts
2026-04-14 14:49 21.27243 -156.41434 14082 ft 354 kts
2026-04-14 14:50 21.29715 -156.41352 14719 ft 357 kts 359°
2026-04-14 14:50 21.32222 -156.41269 15325 ft 362 kts 359°
2026-04-14 14:50 21.34752 -156.41184 15934 ft 366 kts 359°
2026-04-14 14:50 21.37277 -156.41099 16511 ft 370 kts 358°
2026-04-14 14:51 21.39865 -156.41012 17088 ft 374 kts 358°
2026-04-14 14:51 21.42485 -156.40924 17682 ft 378 kts 357°
2026-04-14 14:51 21.45126 -156.40836 18245 ft 382 kts 357°
2026-04-14 14:51 21.47793 -156.40745 18736 ft 385 kts 357°
2026-04-14 14:52 21.50489 -156.40654 19214 ft 389 kts 356°
2026-04-14 14:52 21.53210 -156.40562 19691 ft 392 kts 356°
2026-04-14 14:52 21.55948 -156.40470 20166 ft 395 kts 356°
2026-04-14 14:52 21.58713 -156.40377 20629 ft 399 kts 356°
2026-04-14 14:53 21.61496 -156.40283 21095 ft 402 kts 356°
2026-04-14 14:53 21.64308 -156.40188 21554 ft 405 kts 356°
2026-04-14 14:53 21.67140 -156.40093 22024 ft 408 kts 357°
2026-04-14 14:53 21.69946 -156.39998 22485 ft 411 kts 357°
2026-04-14 14:54 21.72818 -156.39903 22904 ft 415 kts 355°
2026-04-14 14:54 21.75718 -156.39813 23327 ft 418 kts 355°
2026-04-14 14:54 21.78637 -156.39719 23720 ft 421 kts 355°
2026-04-14 14:54 21.81579 -156.39621 24064 ft 424 kts 355°
2026-04-14 14:55 21.84536 -156.39521 24449 ft 426 kts 355°
2026-04-14 14:55 21.87506 -156.39421 24824 ft 428 kts 355°
2026-04-14 14:55 21.89483 -156.39354 25071 ft 429 kts 355°
2026-04-14 14:55 21.93488 -156.39218 25568 ft 432 kts 355°
2026-04-14 14:56 21.98502 -156.39048 26191 ft 435 kts 355°
2026-04-14 14:56 22.01538 -156.38945 26561 ft 437 kts 355°
2026-04-14 14:56 22.04576 -156.38841 26890 ft 439 kts 355°
2026-04-14 14:57 22.07643 -156.38737 27230 ft 441 kts 355°
2026-04-14 14:57 22.10718 -156.38633 27564 ft 443 kts 355°
2026-04-14 14:57 22.13772 -156.38530 27888 ft 445 kts 355°
2026-04-14 14:57 22.16874 -156.38424 28215 ft 447 kts 354°
2026-04-14 14:58 22.19990 -156.38319 28538 ft 449 kts 354°
2026-04-14 14:58 22.23120 -156.38212 28850 ft 451 kts 354°
2026-04-14 14:58 22.26272 -156.38105 29177 ft 453 kts 354°
2026-04-14 14:58 22.29426 -156.37998 29461 ft 456 kts 354°
2026-04-14 14:59 22.32609 -156.37890 29724 ft 459 kts 354°
2026-04-14 14:59 22.35805 -156.37781 30028 ft 461 kts 354°
2026-04-14 14:59 22.39024 -156.37671 30284 ft 463 kts 354°
2026-04-14 14:59 22.42257 -156.37561 30533 ft 465 kts 354°
2026-04-14 15:00 22.45497 -156.37450 30765 ft 467 kts 354°
2026-04-14 15:00 22.48752 -156.37339 31002 ft 469 kts 354°
2026-04-14 15:00 22.52021 -156.37228 31237 ft 471 kts 354°
2026-04-14 15:00 22.55268 -156.37117 31467 ft 473 kts 354°
2026-04-14 15:01 22.58563 -156.37004 31685 ft 476 kts 354°
2026-04-14 15:01 22.61887 -156.36891 31877 ft 479 kts 354°
2026-04-14 15:01 22.65220 -156.36777 32140 ft 480 kts 354°
2026-04-14 15:01 22.68573 -156.36662 32359 ft 482 kts 353°
2026-04-14 15:02 22.71933 -156.36547 32590 ft 484 kts 353°
2026-04-14 15:02 22.75304 -156.36432 32820 ft 486 kts 353°
2026-04-14 15:02 22.78687 -156.36316 33039 ft 487 kts 353°
2026-04-14 15:02 22.82080 -156.36199 33304 ft 488 kts 353°
2026-04-14 15:03 22.85472 -156.36083 33626 ft 488 kts 353°
2026-04-14 15:03 22.88865 -156.35966 33901 ft 488 kts 353°
2026-04-14 15:03 22.92263 -156.35850 34153 ft 488 kts 353°
2026-04-14 15:03 22.95659 -156.35733 34407 ft 488 kts 353°
2026-04-14 15:04 22.99054 -156.35616 34650 ft 488 kts 353°
2026-04-14 15:04 23.02456 -156.35499 34867 ft 488 kts 353°
2026-04-14 15:04 23.05851 -156.35383 35059 ft 488 kts 353°
2026-04-14 15:04 23.09251 -156.35266 35082 ft 489 kts 353°
2026-04-14 15:05 23.16033 -156.35032 35091 ft 486 kts 353°
2026-04-14 15:05 23.22762 -156.34800 35072 ft 487 kts 353°
2026-04-14 15:06 23.29538 -156.34566 35075 ft 487 kts 353°
2026-04-14 15:06 23.36316 -156.34332 35074 ft 487 kts 353°
2026-04-14 15:07 23.43091 -156.34098 35073 ft 487 kts 353°
2026-04-14 15:07 23.49874 -156.33863 35072 ft 487 kts 353°
2026-04-14 15:08 23.56649 -156.33629 35074 ft 487 kts 353°
2026-04-14 15:08 23.63387 -156.33395 35075 ft 487 kts 353°
2026-04-14 15:09 23.70170 -156.33160 35076 ft 487 kts 353°
2026-04-14 15:09 23.76932 -156.32924 35090 ft 485 kts 353°
2026-04-14 15:10 23.83658 -156.32690 35076 ft 482 kts 353°
2026-04-14 15:10 23.90391 -156.32456 35078 ft 483 kts 353°
2026-04-14 15:11 23.97109 -156.32221 35070 ft 483 kts 353°
2026-04-14 15:11 24.00436 -156.31857 35044 ft 494 kts
2026-04-14 15:11 24.03713 -156.30589 35084 ft 508 kts 22°
2026-04-14 15:12 24.06619 -156.28328 35063 ft 520 kts 40°
2026-04-14 15:12 24.08909 -156.25239 35091 ft 525 kts 54°
2026-04-14 15:12 24.13044 -156.18615 35057 ft 527 kts 52°
2026-04-14 15:13 24.17258 -156.12057 35078 ft 527 kts 51°
2026-04-14 15:13 24.21492 -156.05498 35069 ft 526 kts 51°
2026-04-14 15:14 24.25717 -155.98944 35069 ft 526 kts 51°
2026-04-14 15:14 24.29913 -155.92421 35060 ft 528 kts 51°
2026-04-14 15:15 24.34145 -155.85840 35088 ft 527 kts 51°
2026-04-14 15:15 24.38367 -155.79262 35080 ft 527 kts 51°
2026-04-14 15:16 24.42585 -155.72683 35076 ft 527 kts 51°
2026-04-14 15:16 24.46803 -155.66094 35075 ft 527 kts 51°
2026-04-14 15:17 24.51014 -155.59507 35074 ft 527 kts 51°
2026-04-14 15:17 24.55225 -155.52913 35082 ft 527 kts 51°
2026-04-14 15:18 24.59433 -155.46311 35079 ft 527 kts 51°
2026-04-14 15:18 24.63639 -155.39706 35081 ft 527 kts 51°
2026-04-14 15:19 24.67841 -155.33097 35083 ft 527 kts 51°
2026-04-14 15:19 24.72062 -155.26580 35092 ft 523 kts 44°
2026-04-14 15:20 24.77303 -155.21122 35066 ft 522 kts 41°
2026-04-14 15:20 24.82360 -155.15360 35102 ft 523 kts 40°
2026-04-14 15:21 24.87498 -155.09729 35087 ft 521 kts 39°
2026-04-14 15:21 24.92671 -155.04125 35086 ft 521 kts 39°
2026-04-14 15:22 24.97847 -154.98511 35094 ft 522 kts 39°
2026-04-14 15:22 25.03010 -154.92905 35088 ft 521 kts 39°
2026-04-14 15:23 25.08181 -154.87283 35086 ft 521 kts 39°
2026-04-14 15:23 25.13310 -154.81700 35086 ft 521 kts 39°
2026-04-14 15:24 25.18477 -154.76066 35087 ft 521 kts 39°
2026-04-14 15:24 25.23639 -154.70432 35091 ft 521 kts 39°
2026-04-14 15:25 25.28806 -154.64786 35088 ft 521 kts 39°
2026-04-14 15:25 25.33958 -154.59149 35089 ft 521 kts 39°
2026-04-14 15:26 25.39113 -154.53506 35092 ft 521 kts 39°
2026-04-14 15:26 25.44228 -154.47891 35105 ft 521 kts 39°
2026-04-14 15:27 25.49381 -154.42233 35087 ft 521 kts 39°
2026-04-14 15:27 25.54519 -154.36582 35087 ft 521 kts 39°
2026-04-14 15:28 25.59667 -154.30915 35088 ft 521 kts 39°
2026-04-14 15:28 25.64814 -154.25240 35091 ft 521 kts 39°
2026-04-14 15:29 25.69954 -154.19565 35092 ft 522 kts 38°
2026-04-14 15:29 25.75062 -154.13920 35095 ft 522 kts 39°
2026-04-14 15:30 25.80214 -154.08216 35096 ft 522 kts 39°
2026-04-14 15:30 25.85360 -154.02514 35088 ft 522 kts 39°
2026-04-14 15:31 25.90491 -153.96818 35096 ft 521 kts 39°
2026-04-14 15:31 25.95618 -153.91123 35098 ft 521 kts 39°
2026-04-14 15:32 26.00741 -153.85422 35097 ft 521 kts 39°
2026-04-14 15:32 26.05838 -153.79746 35100 ft 521 kts 39°
2026-04-14 15:33 26.10960 -153.74031 35094 ft 521 kts 39°
2026-04-14 15:33 26.16073 -153.68320 35096 ft 520 kts 39°
2026-04-14 15:34 26.21183 -153.62607 35100 ft 521 kts 39°
2026-04-14 15:34 26.26290 -153.56887 35102 ft 520 kts 39°
2026-04-14 15:35 26.31401 -153.51156 35100 ft 521 kts 39°
2026-04-14 15:35 26.36508 -153.45421 35107 ft 521 kts 39°
2026-04-14 15:36 26.41584 -153.39714 35101 ft 521 kts 39°
2026-04-14 15:36 26.46685 -153.33971 35102 ft 520 kts 39°
2026-04-14 15:37 26.51779 -153.28228 35105 ft 520 kts 39°
2026-04-14 15:37 26.56871 -153.22480 35125 ft 520 kts 39°
2026-04-14 15:38 26.61970 -153.16716 35104 ft 521 kts 39°
2026-04-14 15:38 26.67071 -153.10942 35101 ft 521 kts 39°
2026-04-14 15:39 26.72159 -153.05175 35107 ft 520 kts 39°
2026-04-14 15:39 26.77241 -152.99407 35108 ft 520 kts 39°
2026-04-14 15:40 26.82325 -152.93629 35111 ft 522 kts 39°
2026-04-14 15:40 26.87392 -152.87863 35112 ft 523 kts 39°
2026-04-14 15:41 26.92492 -152.82050 35101 ft 522 kts 39°
2026-04-14 15:41 26.97578 -152.76245 35110 ft 519 kts 39°
2026-04-14 15:42 27.02631 -152.70473 35120 ft 520 kts 39°
2026-04-14 15:42 27.07686 -152.64688 35117 ft 523 kts 39°
2026-04-14 15:43 27.12778 -152.58853 35112 ft 522 kts 39°
2026-04-14 15:43 27.17854 -152.53028 35114 ft 522 kts 39°
2026-04-14 15:44 27.22926 -152.47199 35139 ft 520 kts 39°
2026-04-14 15:44 27.27139 -152.42354 35123 ft 521 kts 39°
2026-04-14 15:45 27.32209 -152.36513 35120 ft 521 kts 39°
2026-04-14 15:45 27.37276 -152.30668 35118 ft 521 kts 39°
2026-04-14 15:46 27.42337 -152.24822 35120 ft 521 kts 39°
2026-04-14 15:46 27.47354 -152.19018 35122 ft 518 kts 39°
2026-04-14 15:47 27.52368 -152.13209 35123 ft 516 kts 39°
2026-04-14 15:47 27.57379 -152.07396 35123 ft 516 kts 39°
2026-04-14 15:48 27.62384 -152.01583 35127 ft 516 kts 39°
2026-04-14 15:48 27.67385 -151.95766 35129 ft 519 kts 40°
2026-04-14 15:49 27.72422 -151.89898 35123 ft 521 kts 40°
2026-04-14 15:49 27.77451 -151.84030 35127 ft 519 kts 40°
2026-04-14 15:50 27.82437 -151.78206 35133 ft 519 kts 40°
2026-04-14 15:50 27.87451 -151.72340 35145 ft 519 kts 40°
2026-04-14 15:51 27.92487 -151.66441 35135 ft 521 kts 40°
2026-04-14 15:51 27.97525 -151.60529 35132 ft 521 kts 40°
2026-04-14 15:52 28.02557 -151.54617 35137 ft 522 kts 40°
2026-04-14 15:52 28.07566 -151.48724 35138 ft 521 kts 40°
2026-04-14 15:53 28.12594 -151.42800 35137 ft 522 kts 40°
2026-04-14 15:53 28.17626 -151.36862 35138 ft 522 kts 40°
2026-04-14 15:54 28.25154 -151.27963 35144 ft 520 kts 40°
2026-04-14 15:55 28.30161 -151.22033 35150 ft 521 kts 40°
2026-04-14 15:55 28.35183 -151.16077 35150 ft 522 kts 40°
2026-04-14 15:56 28.40210 -151.10106 35149 ft 522 kts 40°
2026-04-14 15:56 28.45201 -151.04170 35134 ft 522 kts 40°
2026-04-14 15:57 28.50200 -150.98214 35148 ft 520 kts 40°
2026-04-14 15:57 28.55224 -150.92223 35161 ft 523 kts 40°
2026-04-14 15:58 28.60204 -150.86272 35160 ft 522 kts 40°
2026-04-14 15:58 28.65217 -150.80275 35156 ft 522 kts 40°
2026-04-14 15:59 28.70224 -150.74274 35150 ft 524 kts 40°
2026-04-14 15:59 28.75270 -150.68220 35153 ft 526 kts 40°
2026-04-14 15:59 28.77757 -150.65231 35350 ft 526 kts 40°
2026-04-14 16:00 28.80273 -150.62205 35599 ft 526 kts 40°
2026-04-14 16:00 28.82794 -150.59172 35834 ft 525 kts 40°
2026-04-14 16:00 28.85307 -150.56146 36084 ft 525 kts 40°
2026-04-14 16:00 28.87820 -150.53117 36357 ft 524 kts 40°
2026-04-14 16:01 28.90324 -150.50098 36596 ft 523 kts 39°
2026-04-14 16:01 28.92824 -150.47081 36833 ft 523 kts 39°
2026-04-14 16:01 28.95329 -150.44055 37053 ft 521 kts 39°
2026-04-14 16:01 28.97817 -150.41049 37208 ft 520 kts 39°
2026-04-14 16:02 29.00267 -150.38086 37184 ft 519 kts 39°
2026-04-14 16:02 29.05216 -150.32094 37184 ft 519 kts 39°
2026-04-14 16:03 29.10168 -150.26086 37181 ft 519 kts 39°
2026-04-14 16:03 29.15124 -150.20069 37177 ft 519 kts 39°
2026-04-14 16:04 29.20074 -150.14048 37172 ft 519 kts 39°
2026-04-14 16:04 29.25004 -150.08042 37177 ft 518 kts 39°
2026-04-14 16:05 29.29941 -150.02020 37188 ft 518 kts 39°
2026-04-14 16:05 29.34874 -149.95992 37187 ft 518 kts 39°
2026-04-14 16:06 29.39773 -149.89996 37183 ft 518 kts 39°
2026-04-14 16:06 29.44726 -149.83926 37184 ft 518 kts 39°
2026-04-14 16:07 29.49626 -149.77912 37197 ft 518 kts 39°
2026-04-14 16:07 29.54553 -149.71855 37194 ft 519 kts 39°
2026-04-14 16:08 29.59477 -149.65794 37197 ft 519 kts 39°
2026-04-14 16:08 29.64403 -149.59722 37186 ft 519 kts 39°
2026-04-14 16:09 29.69330 -149.53639 37196 ft 519 kts 39°
2026-04-14 16:09 29.74257 -149.47548 37202 ft 519 kts 39°
2026-04-14 16:10 29.79150 -149.41489 37203 ft 519 kts 39°
2026-04-14 16:10 29.84067 -149.35391 37222 ft 519 kts 39°
2026-04-14 16:11 29.88982 -149.29286 37201 ft 520 kts 39°
2026-04-14 16:11 29.93910 -149.23157 37210 ft 521 kts 39°
2026-04-14 16:12 29.98834 -149.17021 37211 ft 520 kts 39°
2026-04-14 16:12 30.03750 -149.10887 37211 ft 521 kts 39°
2026-04-14 16:13 30.09049 -149.05390 37199 ft 512 kts 33°
2026-04-14 16:13 30.14439 -148.99965 37214 ft 514 kts 32°
2026-04-14 16:14 30.19865 -148.94615 37215 ft 512 kts 31°
2026-04-14 16:14 30.25272 -148.89308 37220 ft 512 kts 31°
2026-04-14 16:15 30.30695 -148.83977 37219 ft 512 kts 31°
2026-04-14 16:15 30.36125 -148.78630 37216 ft 512 kts 31°
2026-04-14 16:16 30.41550 -148.73279 37250 ft 512 kts 31°
2026-04-14 16:16 30.46985 -148.67912 37227 ft 514 kts 31°
2026-04-14 16:17 30.52404 -148.62551 37211 ft 515 kts 31°
2026-04-14 16:17 30.57850 -148.57155 37220 ft 515 kts 31°
2026-04-14 16:18 30.63298 -148.51749 37229 ft 515 kts 30°
2026-04-14 16:18 30.68742 -148.46340 37216 ft 515 kts 31°
2026-04-14 16:19 30.74179 -148.40928 37226 ft 514 kts 31°
2026-04-14 16:19 30.79617 -148.35508 37259 ft 514 kts 31°
2026-04-14 16:20 30.85054 -148.30079 37226 ft 516 kts 30°
2026-04-14 16:20 30.90469 -148.24665 37227 ft 516 kts 30°
2026-04-14 16:21 30.95912 -148.19214 37215 ft 516 kts 30°
2026-04-14 16:21 31.01351 -148.13758 37229 ft 516 kts 30°
2026-04-14 16:22 31.06801 -148.08283 37230 ft 517 kts 30°
2026-04-14 16:22 31.12252 -148.02798 37232 ft 517 kts 30°
2026-04-14 16:23 31.17695 -147.97313 37259 ft 517 kts 30°
2026-04-14 16:23 31.23119 -147.91840 37219 ft 520 kts 30°
2026-04-14 16:24 31.28581 -147.86315 37227 ft 518 kts 30°
2026-04-14 16:24 31.34032 -147.80797 37236 ft 518 kts 31°
2026-04-14 16:25 31.39487 -147.75265 37233 ft 519 kts 30°
2026-04-14 16:25 31.44948 -147.69717 37240 ft 520 kts 30°
2026-04-14 16:26 31.50407 -147.64163 37224 ft 520 kts 30°
2026-04-14 16:26 31.55820 -147.58646 37254 ft 519 kts 30°
2026-04-14 16:27 31.61271 -147.53083 37242 ft 520 kts 30°
2026-04-14 16:27 31.66724 -147.47508 37241 ft 520 kts 30°
2026-04-14 16:28 31.72175 -147.41927 37266 ft 520 kts 31°
2026-04-14 16:28 31.77629 -147.36332 37238 ft 518 kts 31°
2026-04-14 16:29 31.83027 -147.30786 37242 ft 518 kts 31°
2026-04-14 16:29 31.88449 -147.25208 37244 ft 518 kts 31°
2026-04-14 16:30 31.93875 -147.19615 37245 ft 518 kts 31°
2026-04-14 16:30 31.99301 -147.14014 37249 ft 518 kts 31°
2026-04-14 16:31 32.04722 -147.08407 37245 ft 518 kts 31°
2026-04-14 16:31 32.10139 -147.02797 37257 ft 517 kts 31°
2026-04-14 16:32 32.14630 -146.98139 37251 ft 517 kts 31°
2026-04-14 16:32 32.20912 -146.91610 37259 ft 518 kts 31°
2026-04-14 16:33 32.26320 -146.85982 37283 ft 518 kts 31°
2026-04-14 16:33 32.30815 -146.81296 37240 ft 517 kts 31°
2026-04-14 16:34 32.36226 -146.75648 37260 ft 518 kts 31°
2026-04-14 16:34 32.41625 -146.70001 37252 ft 518 kts 31°
2026-04-14 16:35 32.47017 -146.64352 37257 ft 516 kts 31°
2026-04-14 16:35 32.52355 -146.58752 37259 ft 516 kts 31°
2026-04-14 16:36 32.57730 -146.53103 37258 ft 516 kts 31°
2026-04-14 16:36 32.63101 -146.47449 37273 ft 513 kts 32°
2026-04-14 16:37 32.68422 -146.41836 37259 ft 511 kts 32°
2026-04-14 16:37 32.73743 -146.36218 37260 ft 512 kts 32°
2026-04-14 16:38 32.79024 -146.30631 37289 ft 508 kts 33°
2026-04-14 16:38 32.84280 -146.25060 37269 ft 506 kts 33°
2026-04-14 16:39 32.89549 -146.19467 37260 ft 507 kts 33°
2026-04-14 16:39 32.94813 -146.13870 37286 ft 507 kts 33°
2026-04-14 16:40 33.00040 -146.08302 37262 ft 502 kts 33°
2026-04-14 16:40 33.05253 -146.02742 37272 ft 503 kts 33°
2026-04-14 16:41 33.10471 -145.97166 37297 ft 502 kts 33°
2026-04-14 16:41 33.15626 -145.91647 37271 ft 498 kts 34°
2026-04-14 16:42 33.20777 -145.86125 37268 ft 498 kts 34°
2026-04-14 16:42 33.25926 -145.80595 37267 ft 498 kts 34°
2026-04-14 16:43 33.31073 -145.75059 37266 ft 496 kts 34°
2026-04-14 16:43 33.36200 -145.69535 37268 ft 496 kts 34°
2026-04-14 16:44 33.41323 -145.64007 37271 ft 496 kts 34°
2026-04-14 16:44 33.46440 -145.58475 37282 ft 495 kts 35°
2026-04-14 16:45 33.54057 -145.50224 37260 ft 494 kts 35°
2026-04-14 16:45 33.59147 -145.44698 37276 ft 494 kts 35°
2026-04-14 16:46 33.64242 -145.39159 37271 ft 494 kts 35°
2026-04-14 16:46 33.69335 -145.33615 37276 ft 494 kts 35°
2026-04-14 16:47 33.74401 -145.28090 37276 ft 494 kts 35°
2026-04-14 16:47 33.79483 -145.22539 37277 ft 494 kts 35°
2026-04-14 16:48 33.84560 -145.16985 37275 ft 493 kts 35°
2026-04-14 16:48 33.89638 -145.11419 37277 ft 493 kts 35°
2026-04-14 16:49 33.94714 -145.05847 37290 ft 493 kts 36°
2026-04-14 16:49 33.99745 -145.00334 37265 ft 491 kts 34°
2026-04-14 16:50 34.04870 -144.94866 37283 ft 492 kts 34°
2026-04-14 16:50 34.10003 -144.89377 37297 ft 491 kts 35°
2026-04-14 16:51 34.15093 -144.83922 37273 ft 489 kts 35°
2026-04-14 16:51 34.20186 -144.78459 37289 ft 490 kts 35°
2026-04-14 16:52 34.25274 -144.72991 37272 ft 489 kts 35°
2026-04-14 16:52 34.30355 -144.67520 37274 ft 489 kts 35°
2026-04-14 16:53 34.35434 -144.62043 37275 ft 489 kts 35°
2026-04-14 16:53 34.40478 -144.56593 37294 ft 489 kts 36°
2026-04-14 16:54 34.45559 -144.51095 37278 ft 488 kts 36°
2026-04-14 16:54 34.50632 -144.45597 37277 ft 489 kts 36°
2026-04-14 16:55 34.55698 -144.40096 37300 ft 489 kts 36°
2026-04-14 16:55 34.60732 -144.34620 37287 ft 487 kts 36°
2026-04-14 16:56 34.65785 -144.29116 37275 ft 487 kts 36°
2026-04-14 16:56 34.70836 -144.23604 37287 ft 488 kts 36°
2026-04-14 16:57 34.75889 -144.18079 37286 ft 488 kts 36°
2026-04-14 16:57 34.80925 -144.12565 37286 ft 487 kts 36°
2026-04-14 16:58 34.85934 -144.07070 37323 ft 488 kts 36°
2026-04-14 16:58 34.90957 -144.01550 37253 ft 485 kts 36°
2026-04-14 16:59 34.95969 -143.96034 37278 ft 486 kts 36°
2026-04-14 16:59 35.00999 -143.90487 37308 ft 487 kts 36°
2026-04-14 17:00 35.06008 -143.84953 37273 ft 484 kts 37°
2026-04-14 17:00 35.11004 -143.79428 37290 ft 485 kts 37°
2026-04-14 17:01 35.15995 -143.73894 37274 ft 484 kts 37°
2026-04-14 17:01 35.20963 -143.68380 37294 ft 486 kts 37°
2026-04-14 17:02 35.25966 -143.62813 37285 ft 486 kts 37°
2026-04-14 17:02 35.30967 -143.57243 37318 ft 486 kts 37°
2026-04-14 17:03 35.35964 -143.51665 37263 ft 484 kts 37°
2026-04-14 17:03 35.40937 -143.46106 37296 ft 484 kts 37°
2026-04-14 17:04 35.45910 -143.40536 37306 ft 484 kts 37°
2026-04-14 17:04 35.50873 -143.34968 37282 ft 483 kts 37°
2026-04-14 17:05 35.55802 -143.29428 37291 ft 483 kts 37°
2026-04-14 17:05 35.60762 -143.23843 37291 ft 483 kts 37°
2026-04-14 17:06 35.65718 -143.18253 37278 ft 482 kts 37°
2026-04-14 17:06 35.70659 -143.12671 37285 ft 482 kts 37°
2026-04-14 17:07 35.75601 -143.07078 37300 ft 482 kts 38°
2026-04-14 17:07 35.80524 -143.01495 37279 ft 480 kts 38°
2026-04-14 17:08 35.85409 -142.95946 37282 ft 481 kts 38°
2026-04-14 17:08 35.90329 -142.90349 37290 ft 481 kts 38°
2026-04-14 17:09 35.95244 -142.84746 37283 ft 480 kts 38°
2026-04-14 17:09 36.00140 -142.79154 37283 ft 480 kts 38°
2026-04-14 17:10 36.05040 -142.73550 37290 ft 479 kts 38°
2026-04-14 17:10 36.09902 -142.67979 37283 ft 479 kts 38°
2026-04-14 17:11 36.14782 -142.62376 37284 ft 479 kts 38°
2026-04-14 17:11 36.19662 -142.56763 37291 ft 478 kts 38°
2026-04-14 17:12 36.24533 -142.51153 37279 ft 478 kts 38°
2026-04-14 17:12 36.29394 -142.45543 37286 ft 477 kts 38°
2026-04-14 17:13 36.34249 -142.39928 37288 ft 477 kts 38°
2026-04-14 17:13 36.39113 -142.34295 37287 ft 477 kts 38°
2026-04-14 17:14 36.43962 -142.28668 37284 ft 477 kts 38°
2026-04-14 17:14 36.48768 -142.23084 37284 ft 475 kts 38°
2026-04-14 17:15 36.53594 -142.17466 37293 ft 475 kts 38°
2026-04-14 17:15 36.58418 -142.11837 37295 ft 475 kts 38°
2026-04-14 17:16 36.63241 -142.06201 37283 ft 475 kts 38°
2026-04-14 17:16 36.68057 -142.00563 37287 ft 475 kts 39°
2026-04-14 17:17 36.72868 -141.94920 37307 ft 474 kts 39°
2026-04-14 17:17 36.77660 -141.89289 37289 ft 473 kts 39°
2026-04-14 17:18 36.82417 -141.83689 37292 ft 473 kts 39°
2026-04-14 17:18 36.87203 -141.78044 37295 ft 473 kts 39°
2026-04-14 17:19 36.91991 -141.72388 37290 ft 473 kts 39°
2026-04-14 17:19 36.96768 -141.66735 37290 ft 473 kts 39°
2026-04-14 17:20 37.01524 -141.61095 37291 ft 473 kts 39°
2026-04-14 17:20 37.05525 -141.56344 37283 ft 473 kts 39°
2026-04-14 17:21 37.10267 -141.50702 37293 ft 473 kts 39°
2026-04-14 17:21 37.15045 -141.45007 37290 ft 473 kts 38°
2026-04-14 17:22 37.19820 -141.39305 37291 ft 474 kts 38°
2026-04-14 17:22 37.24593 -141.33597 37306 ft 474 kts 38°
2026-04-14 17:23 37.29361 -141.27881 37289 ft 473 kts 38°
2026-04-14 17:23 37.34130 -141.22156 37289 ft 474 kts 38°
2026-04-14 17:24 37.38892 -141.16428 37298 ft 474 kts 38°
2026-04-14 17:24 37.43653 -141.10691 37288 ft 473 kts 38°
2026-04-14 17:25 37.48410 -141.04948 37287 ft 474 kts 38°
2026-04-14 17:25 37.53130 -140.99238 37288 ft 474 kts 38°
2026-04-14 17:26 37.57880 -140.93482 37289 ft 474 kts 38°
2026-04-14 17:26 37.62634 -140.87710 37303 ft 473 kts 38°
2026-04-14 17:27 37.67375 -140.81943 37286 ft 473 kts 38°
2026-04-14 17:27 37.72110 -140.76173 37291 ft 473 kts 38°
2026-04-14 17:28 37.76842 -140.70395 37299 ft 472 kts 38°
2026-04-14 17:28 37.81560 -140.64624 37289 ft 471 kts 38°
2026-04-14 17:29 37.86238 -140.58891 37291 ft 472 kts 38°
2026-04-14 17:29 37.90954 -140.53102 37289 ft 472 kts 38°
2026-04-14 17:30 37.95659 -140.47314 37291 ft 472 kts 38°
2026-04-14 17:30 38.00371 -140.41507 37302 ft 472 kts 38°
2026-04-14 17:31 38.05070 -140.35704 37290 ft 471 kts 38°
2026-04-14 17:31 38.09729 -140.29941 37291 ft 471 kts 38°
2026-04-14 17:32 38.14419 -140.24127 37296 ft 471 kts 38°
2026-04-14 17:32 38.19101 -140.18314 37289 ft 470 kts 38°
2026-04-14 17:33 38.23779 -140.12493 37292 ft 471 kts 38°
2026-04-14 17:34 38.30796 -140.03743 37283 ft 470 kts 38°
2026-04-14 17:34 38.35472 -139.97897 37289 ft 471 kts 38°
2026-04-14 17:35 38.40119 -139.92077 37297 ft 471 kts 38°
2026-04-14 17:35 38.44789 -139.86217 37287 ft 470 kts 38°
2026-04-14 17:36 38.49452 -139.80355 37290 ft 471 kts 38°
2026-04-14 17:36 38.54113 -139.74483 37289 ft 470 kts 38°
2026-04-14 17:37 38.58765 -139.68612 37290 ft 470 kts 38°
2026-04-14 17:37 38.63397 -139.62754 37300 ft 470 kts 38°
2026-04-14 17:38 38.68043 -139.56868 37286 ft 470 kts 38°
2026-04-14 17:38 38.72683 -139.50977 37288 ft 470 kts 38°
2026-04-14 17:39 38.77322 -139.45077 37303 ft 470 kts 38°
2026-04-14 17:39 38.81963 -139.39163 37287 ft 469 kts 38°
2026-04-14 17:40 38.86594 -139.33250 37288 ft 470 kts 38°
2026-04-14 17:40 38.91224 -139.27327 37293 ft 469 kts 38°
2026-04-14 17:41 38.95807 -139.21452 37283 ft 468 kts 38°
2026-04-14 17:41 39.00426 -139.15519 37284 ft 469 kts 38°
2026-04-14 17:42 39.05033 -139.09592 37286 ft 467 kts 38°
2026-04-14 17:42 39.09618 -139.03680 37289 ft 466 kts 38°
2026-04-14 17:43 39.14202 -138.97758 37277 ft 467 kts 38°
2026-04-14 17:43 39.18785 -138.91826 37282 ft 467 kts 38°
2026-04-14 17:44 39.23363 -138.85888 37282 ft 467 kts 38°
2026-04-14 17:44 39.27940 -138.79944 37299 ft 467 kts 38°
2026-04-14 17:45 39.32503 -138.74006 37269 ft 464 kts 39°
2026-04-14 17:45 39.37049 -138.68078 37285 ft 465 kts 39°
2026-04-14 17:46 39.41595 -138.62139 37293 ft 465 kts 39°
2026-04-14 17:46 39.46113 -138.56225 37276 ft 463 kts 39°
2026-04-14 17:47 39.50648 -138.50277 37275 ft 464 kts 39°
2026-04-14 17:47 39.55179 -138.44324 37292 ft 463 kts 40°
2026-04-14 17:48 39.59692 -138.38382 37277 ft 462 kts 40°
2026-04-14 17:48 39.64201 -138.32434 37279 ft 462 kts 40°
2026-04-14 17:49 39.68675 -138.26522 37291 ft 462 kts 40°
2026-04-14 17:49 39.73164 -138.20578 37269 ft 460 kts 41°
2026-04-14 17:50 39.77642 -138.14635 37276 ft 460 kts 41°
2026-04-14 17:50 39.82092 -138.08620 37288 ft 460 kts 41°
2026-04-14 17:51 39.86527 -138.02636 37271 ft 458 kts 41°
2026-04-14 17:51 39.90957 -137.96660 37277 ft 459 kts 41°
2026-04-14 17:52 39.95383 -137.90675 37285 ft 458 kts 42°
2026-04-14 17:52 39.99770 -137.84732 37261 ft 458 kts 42°
2026-04-14 17:53 40.04186 -137.78737 37266 ft 458 kts 42°
2026-04-14 17:53 40.08601 -137.72731 37274 ft 458 kts 42°
2026-04-14 17:54 40.13001 -137.66734 37265 ft 457 kts 42°
2026-04-14 17:54 40.17397 -137.60731 37266 ft 457 kts 42°
2026-04-14 17:55 40.21791 -137.54717 37274 ft 457 kts 42°
2026-04-14 17:55 40.26153 -137.48737 37262 ft 457 kts 42°
2026-04-14 17:56 40.30534 -137.42718 37260 ft 457 kts 42°
2026-04-14 17:56 40.34926 -137.36670 37272 ft 457 kts 42°
2026-04-14 17:57 40.39308 -137.30626 37255 ft 456 kts 42°
2026-04-14 17:57 40.43682 -137.24581 37257 ft 457 kts 42°
2026-04-14 17:58 40.48032 -137.18555 37258 ft 457 kts 42°
2026-04-14 17:58 40.52398 -137.12496 37250 ft 457 kts 42°
2026-04-14 17:59 40.56763 -137.06425 37250 ft 457 kts 42°
2026-04-14 17:59 40.61130 -137.00340 37262 ft 457 kts 42°
2026-04-14 18:00 40.65463 -136.94290 37251 ft 457 kts 42°
2026-04-14 18:00 40.71996 -136.85145 37246 ft 457 kts 42°
2026-04-14 18:01 40.76349 -136.79034 37249 ft 457 kts 42°
2026-04-14 18:01 40.80696 -136.72922 37241 ft 456 kts 42°
2026-04-14 18:02 40.85040 -136.66800 37237 ft 456 kts 42°
2026-04-14 18:02 40.89382 -136.60670 37247 ft 456 kts 42°
2026-04-14 18:03 40.93713 -136.54541 37235 ft 456 kts 42°
2026-04-14 18:03 40.98039 -136.48406 37236 ft 456 kts 43°
2026-04-14 18:04 41.02337 -136.42299 37246 ft 456 kts 43°
2026-04-14 18:04 41.06653 -136.36154 37231 ft 454 kts 43°
2026-04-14 18:05 41.10965 -136.30002 37226 ft 455 kts 43°
2026-04-14 18:05 41.15268 -136.23850 37236 ft 455 kts 43°
2026-04-14 18:06 41.19562 -136.17698 37223 ft 454 kts 43°
2026-04-14 18:06 41.23853 -136.11538 37225 ft 454 kts 43°
2026-04-14 18:07 41.28137 -136.05374 37221 ft 454 kts 43°
2026-04-14 18:07 41.32396 -135.99234 37223 ft 454 kts 43°
2026-04-14 18:08 41.35976 -135.94063 37226 ft 454 kts 43°
2026-04-14 18:08 41.40253 -135.87873 37226 ft 453 kts 43°
2026-04-14 18:09 41.44498 -135.81717 37211 ft 453 kts 43°
2026-04-14 18:09 41.48766 -135.75515 37214 ft 453 kts 43°
2026-04-14 18:10 41.53023 -135.69315 37210 ft 453 kts 43°
2026-04-14 18:10 41.57277 -135.63108 37224 ft 453 kts 43°
2026-04-14 18:11 41.61531 -135.56886 37205 ft 453 kts 43°
2026-04-14 18:11 41.65745 -135.50711 37216 ft 453 kts 43°
2026-04-14 18:12 41.69990 -135.44478 37227 ft 453 kts 43°
2026-04-14 18:12 41.74220 -135.38251 37204 ft 451 kts 43°
2026-04-14 18:13 41.78443 -135.32023 37207 ft 451 kts 43°
2026-04-14 18:13 41.82665 -135.25787 37200 ft 451 kts 43°
2026-04-14 18:14 41.86880 -135.19549 37198 ft 451 kts 43°
2026-04-14 18:14 41.91066 -135.13340 37194 ft 451 kts 43°
2026-04-14 18:15 41.95273 -135.07088 37203 ft 451 kts 43°
2026-04-14 18:15 41.99486 -135.00830 37183 ft 449 kts 40°
2026-04-14 18:16 42.04248 -134.95514 37183 ft 447 kts 37°
2026-04-14 18:16 42.08938 -134.89997 37190 ft 447 kts 36°
2026-04-14 18:17 42.13641 -134.84618 37190 ft 447 kts 35°
2026-04-14 18:17 42.18401 -134.79220 37179 ft 447 kts 35°
2026-04-14 18:18 42.23156 -134.73819 37175 ft 447 kts 35°
2026-04-14 18:18 42.27909 -134.68408 37172 ft 447 kts 35°
2026-04-14 18:19 42.32667 -134.62980 37174 ft 447 kts 35°
2026-04-14 18:19 42.37417 -134.57552 37165 ft 447 kts 35°
2026-04-14 18:20 42.42162 -134.52116 37165 ft 447 kts 35°
2026-04-14 18:20 42.46915 -134.46659 37167 ft 448 kts 34°
2026-04-14 18:21 42.51637 -134.41230 37161 ft 448 kts 34°
2026-04-14 18:21 42.56390 -134.35753 37151 ft 448 kts 34°
2026-04-14 18:22 42.61140 -134.30266 37153 ft 448 kts 34°
2026-04-14 18:22 42.65895 -134.24764 37149 ft 449 kts 34°
2026-04-14 18:23 42.70647 -134.19253 37147 ft 449 kts 34°
2026-04-14 18:23 42.75396 -134.13734 37162 ft 449 kts 34°
2026-04-14 18:24 42.80152 -134.08197 37133 ft 450 kts 34°
2026-04-14 18:24 42.84881 -134.02680 37133 ft 450 kts 34°
2026-04-14 18:25 42.89639 -133.97115 37133 ft 450 kts 34°
2026-04-14 18:25 42.94352 -133.91591 37267 ft 450 kts 34°
2026-04-14 18:26 42.96729 -133.88802 37469 ft 450 kts 34°
2026-04-14 18:26 42.99106 -133.86009 37650 ft 451 kts 34°
2026-04-14 18:26 43.01482 -133.83214 37845 ft 450 kts 34°
2026-04-14 18:26 43.03858 -133.80416 38036 ft 450 kts 34°
2026-04-14 18:27 43.06225 -133.77626 38227 ft 449 kts 34°
2026-04-14 18:27 43.08594 -133.74830 38440 ft 449 kts 34°
2026-04-14 18:27 43.10959 -133.72036 38649 ft 448 kts 33°
2026-04-14 18:27 43.13316 -133.69250 38823 ft 448 kts 33°
2026-04-14 18:28 43.15670 -133.66462 38984 ft 447 kts 33°
2026-04-14 18:28 43.17991 -133.63711 39107 ft 446 kts 33°
2026-04-14 18:28 43.22699 -133.58126 39104 ft 446 kts 34°
2026-04-14 18:29 43.27391 -133.52545 39107 ft 447 kts 33°
2026-04-14 18:29 43.32100 -133.46932 39109 ft 448 kts 33°
2026-04-14 18:30 43.36794 -133.41324 39093 ft 447 kts 33°
2026-04-14 18:30 43.41492 -133.35703 39096 ft 448 kts 33°
2026-04-14 18:31 43.46183 -133.30075 39088 ft 448 kts 33°
2026-04-14 18:31 43.50845 -133.24472 39086 ft 448 kts 33°
2026-04-14 18:32 43.55533 -133.18824 39105 ft 448 kts 33°
2026-04-14 18:32 43.60229 -133.13155 39083 ft 449 kts 33°
2026-04-14 18:33 43.64936 -133.07459 39080 ft 449 kts 33°
2026-04-14 18:34 43.74329 -132.96056 39075 ft 450 kts 33°
2026-04-14 18:34 43.79029 -132.90334 39078 ft 450 kts 33°
2026-04-14 18:35 43.83698 -132.84636 39062 ft 450 kts 33°
2026-04-14 18:35 43.88393 -132.78892 39082 ft 450 kts 33°
2026-04-14 18:36 43.93098 -132.73126 39058 ft 451 kts 33°
2026-04-14 18:36 43.97803 -132.67345 39053 ft 452 kts 33°
2026-04-14 18:37 44.02508 -132.61552 39051 ft 452 kts 33°
2026-04-14 18:37 44.07221 -132.55737 39059 ft 453 kts 32°
2026-04-14 18:38 44.11909 -132.49940 39054 ft 454 kts 33°
2026-04-14 18:38 44.16639 -132.44077 39047 ft 454 kts 32°
2026-04-14 18:39 44.21363 -132.38209 39052 ft 455 kts 32°
2026-04-14 18:39 44.26105 -132.32305 39041 ft 457 kts 32°
2026-04-14 18:40 44.30812 -132.26431 39039 ft 457 kts 32°
2026-04-14 18:40 44.35549 -132.20508 39036 ft 457 kts 32°
2026-04-14 18:41 44.40289 -132.14566 39034 ft 457 kts 32°
2026-04-14 18:41 44.45022 -132.08621 39031 ft 457 kts 32°
2026-04-14 18:42 44.49756 -132.02659 39029 ft 457 kts 32°
2026-04-14 18:42 44.54464 -131.96717 39043 ft 458 kts 32°
2026-04-14 18:43 44.59193 -131.90737 39024 ft 458 kts 32°
2026-04-14 18:43 44.63930 -131.84730 39011 ft 458 kts 32°
2026-04-14 18:44 44.68661 -131.78719 39018 ft 458 kts 32°
2026-04-14 18:44 44.73357 -131.72737 39033 ft 459 kts 32°
2026-04-14 18:45 44.78095 -131.66691 39017 ft 461 kts 32°
2026-04-14 18:45 44.82850 -131.60606 39010 ft 461 kts 32°
2026-04-14 18:46 44.87595 -131.54520 39023 ft 461 kts 31°
2026-04-14 18:46 44.92347 -131.48411 39004 ft 462 kts 31°
2026-04-14 18:47 44.97098 -131.42290 39002 ft 462 kts 31°
2026-04-14 18:47 45.01846 -131.36157 38997 ft 462 kts 31°
2026-04-14 18:48 45.06569 -131.30043 39000 ft 462 kts 31°
2026-04-14 18:48 45.11311 -131.23889 38994 ft 462 kts 32°
2026-04-14 18:49 45.16051 -131.17724 38987 ft 463 kts 32°
2026-04-14 18:49 45.20764 -131.11579 39010 ft 463 kts 31°
2026-04-14 18:50 45.25513 -131.05373 38987 ft 464 kts 31°
2026-04-14 18:50 45.30267 -130.99145 38986 ft 464 kts 32°
2026-04-14 18:51 45.35017 -130.92907 38980 ft 465 kts 31°
2026-04-14 18:51 45.39783 -130.86636 38975 ft 468 kts 31°
2026-04-14 18:52 45.44561 -130.80331 38975 ft 469 kts 31°
2026-04-14 18:52 45.49310 -130.74050 38971 ft 469 kts 31°
2026-04-14 18:53 45.54084 -130.67719 38997 ft 469 kts 31°
2026-04-14 18:53 45.58866 -130.61365 38969 ft 470 kts 31°
2026-04-14 18:54 45.63648 -130.54993 38963 ft 470 kts 31°
2026-04-14 18:54 45.68428 -130.48610 38957 ft 470 kts 31°
2026-04-14 18:55 45.73197 -130.42223 38965 ft 470 kts 31°
2026-04-14 18:55 45.77938 -130.35861 38960 ft 470 kts 31°
2026-04-14 18:56 45.82706 -130.29445 38949 ft 470 kts 31°
2026-04-14 18:56 45.87469 -130.23021 38971 ft 470 kts 31°
2026-04-14 18:57 45.92238 -130.16573 38943 ft 470 kts 31°
2026-04-14 18:57 45.97002 -130.10116 38940 ft 471 kts 31°
2026-04-14 18:58 46.01760 -130.03650 38939 ft 471 kts 31°
2026-04-14 18:58 46.06525 -129.97161 38958 ft 472 kts 31°
2026-04-14 18:59 46.10481 -129.91757 38925 ft 471 kts 31°
2026-04-14 18:59 46.16012 -129.84188 38922 ft 472 kts 31°
2026-04-14 19:00 46.20770 -129.77659 38930 ft 472 kts 31°
2026-04-14 19:00 46.25530 -129.71109 38936 ft 473 kts 31°
2026-04-14 19:01 46.29523 -129.65601 38925 ft 473 kts 31°
2026-04-14 19:01 46.34255 -129.59060 38922 ft 473 kts 31°
2026-04-14 19:02 46.39017 -129.52461 38948 ft 473 kts 31°
2026-04-14 19:02 46.43784 -129.45839 38914 ft 475 kts 31°
2026-04-14 19:03 46.48554 -129.39194 38918 ft 476 kts 31°
2026-04-14 19:03 46.53300 -129.32567 38927 ft 476 kts 31°
2026-04-14 19:04 46.58080 -129.25874 38925 ft 479 kts 32°
2026-04-14 19:04 46.62892 -129.19119 38920 ft 481 kts 32°
2026-04-14 19:05 46.67702 -129.12350 38913 ft 480 kts 32°
2026-04-14 19:05 46.72477 -129.05613 38917 ft 481 kts 32°
2026-04-14 19:06 46.77273 -128.98826 38913 ft 481 kts 32°
2026-04-14 19:06 46.82073 -128.92019 38906 ft 481 kts 32°
2026-04-14 19:07 46.86866 -128.85203 38912 ft 481 kts 32°
2026-04-14 19:07 46.91658 -128.78372 38925 ft 482 kts 32°
2026-04-14 19:08 46.96468 -128.71493 38912 ft 484 kts 33°
2026-04-14 19:08 47.01276 -128.64599 38906 ft 484 kts 33°
2026-04-14 19:09 47.06085 -128.57689 38927 ft 484 kts 33°
2026-04-14 19:09 47.10899 -128.50753 38896 ft 486 kts 33°
2026-04-14 19:10 47.15730 -128.43777 38916 ft 489 kts 34°
2026-04-14 19:10 47.20582 -128.36747 38910 ft 490 kts 34°
2026-04-14 19:11 47.25409 -128.29739 38925 ft 491 kts 34°
2026-04-14 19:11 47.30282 -128.22648 38898 ft 493 kts 34°
2026-04-14 19:12 47.35161 -128.15525 38895 ft 494 kts 34°
2026-04-14 19:13 47.42474 -128.04816 38918 ft 494 kts 35°
2026-04-14 19:13 47.47361 -127.97636 38897 ft 496 kts 35°
2026-04-14 19:14 47.52255 -127.90424 38888 ft 496 kts 35°
2026-04-14 19:14 47.57143 -127.83202 38887 ft 497 kts 35°
2026-04-14 19:15 47.62033 -127.75960 38892 ft 498 kts 36°
2026-04-14 19:15 47.66891 -127.68706 38875 ft 500 kts 38°
2026-04-14 19:16 47.71351 -127.60670 38941 ft 506 kts 43°
2026-04-14 19:16 47.75796 -127.52579 38899 ft 504 kts 42°
2026-04-14 19:17 47.80255 -127.44490 38892 ft 507 kts 43°
2026-04-14 19:17 47.84709 -127.36370 38877 ft 506 kts 43°
2026-04-14 19:18 47.89168 -127.28224 38873 ft 507 kts 43°
2026-04-14 19:18 47.93617 -127.20071 38884 ft 507 kts 44°
2026-04-14 19:19 47.98078 -127.11870 38877 ft 508 kts 44°
2026-04-14 19:19 48.02528 -127.03665 38870 ft 508 kts 44°
2026-04-14 19:20 48.06977 -126.95436 38893 ft 509 kts 44°
2026-04-14 19:20 48.11395 -126.87240 38871 ft 510 kts 44°
2026-04-14 19:21 48.15844 -126.78961 38858 ft 510 kts 44°
2026-04-14 19:21 48.20289 -126.70664 38873 ft 510 kts 44°
2026-04-14 19:22 48.24727 -126.62355 38883 ft 511 kts 45°
2026-04-14 19:22 48.29183 -126.53988 38780 ft 514 kts 45°
2026-04-14 19:22 48.31379 -126.49851 38499 ft 509 kts 45°
2026-04-14 19:23 48.33588 -126.45687 37634 ft 512 kts 44°
2026-04-14 19:23 48.35824 -126.41470 36575 ft 520 kts 44°
2026-04-14 19:23 48.38090 -126.37186 35718 ft 525 kts 44°
2026-04-14 19:23 48.40352 -126.32896 35249 ft 520 kts 44°
2026-04-14 19:24 48.41108 -126.31462 35145 ft 517 kts 44°